Date,TemperatureHighF,TemperatureAvgF,TemperatureLowF,DewpointHighF,DewpointAvgF,DewpointLowF,HumidityHigh,HumidityAvg,HumidityLow,PressureMaxIn,PressureMinIn,WindSpeedMaxMPH,WindSpeedAvgMPH,GustSpeedMaxMPH,PrecipitationSumIn
2012-12-11,60.0,33.7,31.9,58.0,30.9,29.4,98,90,74,29.92,27.05,10,1,18,0.00
2012-12-12,40.2,36.1,31.7,34.5,30.6,26.3,100,81,60,27.29,27.14,4,1,9,0.00
2012-12-13,51.0,37.6,28.9,28.4,22.0,18.0,73,55,30,27.34,27.23,4,1,8,0.00
2012-12-14,60.4,38.4,27.9,33.0,25.7,19.8,82,61,32,27.34,27.23,3,0,5,0.00
2012-12-15,57.4,43.6,34.5,39.1,29.4,24.9,71,59,35,27.23,27.08,4,0,10,0.00
2012-12-16,52.1,48.1,41.9,52.1,46.8,38.6,100,96,68,27.08,26.96,3,0,5,0.70
2012-12-17,60.0,36.0,46.0,58.0,10.6,-99.9,100,74,91,30.06,27.05,10,-18,18,3.29
2012-12-18,49.0,29.1,32.7,45.7,-9.0,-99.9,100,46,38,30.12,29.78,5,-16,11,0.00
2012-12-19,61.8,39.2,33.1,37.3,15.1,-99.9,82,53,37,30.26,30.07,3,1,8,0.00
2012-12-20,47.3,34.5,34.3,45.9,14.3,-99.9,100,71,70,30.24,29.70,5,-369,10,0.21
2012-12-21,35.6,16.4,28.2,23.2,-37.8,-99.9,68,31,52,30.02,29.73,4,-765,14,8.85
2012-12-22,44.2,36.4,29.4,14.3,10.0,7.3,39,32,28,30.31,30.19,0,0,0,0.00
2012-12-23,48.2,36.9,27.3,31.8,18.5,9.4,70,46,35,30.30,30.14,0,0,0,0.04
2012-12-24,48.0,43.3,38.8,48.0,42.4,31.6,100,97,69,30.14,29.95,0,-74,0,0.00
2012-12-25,47.8,38.6,35.8,47.8,28.7,-99.9,100,84,64,30.21,30.05,0,-202,0,0.00
2012-12-26,40.1,36.5,28.8,40.1,34.0,20.6,100,91,63,30.06,29.58,0,-524,0,0.20
2012-12-27,37.0,29.5,26.6,21.9,20.8,17.8,79,68,50,30.22,29.84,6,-14,10,0.00
2012-12-28,46.1,33.4,25.0,27.4,23.5,20.6,84,68,40,30.28,30.08,4,1,6,0.04
2012-12-29,41.9,33.5,26.6,35.7,25.4,-99.9,97,73,48,30.17,29.86,10,3,23,0.21
2012-12-30,37.1,28.5,23.5,14.4,12.1,9.2,59,47,35,30.56,30.14,8,4,21,0.00
2012-12-31,50.0,37.0,25.9,16.6,12.8,8.8,52,37,21,30.51,30.24,5,2,8,0.00
2013-1-1,45.9,42.2,37.6,42.6,31.7,14.9,96,70,36,30.24,30.09,5,2,7,0.50